TimeICT,TemperatureF,Dew PointF,Humidity,Sea Level PressureIn,VisibilityMPH,Wind Direction,Wind SpeedMPH,Gust SpeedMPH,PrecipitationIn,Events,Conditions,WindDirDegrees,DateUTC
1:00 AM,80,73,74,29.77,6,Calm,Calm,,,,Scattered Clouds,,2012-11-08 18:00:00
5:00 AM,77.0,75.2,94,29.77,-9999.0,Calm,Calm,-,N/A,,Clear,0,2012-11-08 22:00:00
6:00 AM,75.2,75.2,100,29.80,5.6,Calm,Calm,-,N/A,,Scattered Clouds,0,2012-11-08 23:00:00
7:00 AM,77,73,84,29.83,6,South,2.3,,,,Scattered Clouds,180,2012-11-09 00:00:00
7:00 AM,77.0,75.2,94,29.83,6.2,Calm,Calm,-,N/A,,Scattered Clouds,0,2012-11-09 00:00:00
8:00 AM,82.4,77.0,84,29.86,6.2,Calm,Calm,-,N/A,,Scattered Clouds,0,2012-11-09 01:00:00
9:00 AM,86.0,77.0,74,29.86,6.2,Variable,2.3,-,N/A,,Scattered Clouds,0,2012-11-09 02:00:00
10:00 AM,89.6,77.0,66,29.86,6.2,East,2.3,-,N/A,,Partly Cloudy,100,2012-11-09 03:00:00
11:00 AM,91.4,77.0,63,29.83,6.2,Variable,3.5,-,N/A,,Scattered Clouds,0,2012-11-09 04:00:00
12:00 PM,93.2,77.0,59,29.83,6.2,Variable,4.6,-,N/A,,Mostly Cloudy,0,2012-11-09 05:00:00
1:00 PM,91,74,48,29.76,6,NNE,2.3,,,,Scattered Clouds,30,2012-11-09 06:00:00
1:00 PM,91.4,77.0,63,29.77,6.2,NE,3.5,-,N/A,,Scattered Clouds,40,2012-11-09 06:00:00
2:00 PM,93.2,77.0,59,29.74,6.2,Variable,4.6,-,N/A,,Scattered Clouds,0,2012-11-09 07:00:00
3:00 PM,95.0,73.4,49,29.74,6.2,Variable,2.3,-,N/A,,Scattered Clouds,0,2012-11-09 08:00:00
4:00 PM,89.6,77.0,66,29.74,6.2,Variable,3.5,-,N/A,,Scattered Clouds,0,2012-11-09 09:00:00
5:00 PM,87.8,75.2,66,29.74,6.2,Calm,Calm,-,N/A,,Scattered Clouds,0,2012-11-09 10:00:00
6:00 PM,86.0,75.2,70,29.77,6.2,Calm,Calm,-,N/A,,Mostly Cloudy,0,2012-11-09 11:00:00
7:00 PM,82,75,73,29.77,6,NNW,2.3,,,,Scattered Clouds,330,2012-11-09 12:00:00
7:00 PM,82.4,75.2,79,29.77,6.2,Calm,Calm,-,N/A,,Scattered Clouds,0,2012-11-09 12:00:00
8:00 PM,82.4,77.0,84,29.83,6.2,Calm,Calm,-,N/A,,Scattered Clouds,0,2012-11-09 13:00:00